Location: Blankensee
(53.5126°N, 14.3055°E)
Time: 18:56:22
(UTC+00:00)

Landsat 4 - Pass Details

Date: 08 August 2020
Orbit: 504 x 524 km, 98.2° (Epoch: 20 September)

Event Time Altitude Azimuth Distance (km) Brightness Sun altitude
Rises 23:58:03 0° 12° (NNE) 2,670 9.0 -19.6°
Reaches altitude 10° 00:00:11 10° 8° (N) 1,774 7.6 -19.5°
Maximum altitude 00:03:56 55° 290° (WNW) 635 4.1 -19.4°
Enters shadow 00:04:44 44° 245° (WSW) 729 4.1 -19.4°
